Cloud_Cover
100 100 100 100 100 100 60 30 76 100 100 88 95 93 100 100 100 100 5 5 5 5 5 5 74 78 87 48 5 5 10 99 100 96 100 100 98 99
100 100 100 100 100 100 100 100 100 100 100 100 95 100 100 100 100 86 46 9 5 2 5 5 5 5 7 48 17 52 22 100 100 100 100 100 31 36
100 100 100 100 100 100 100 100 100 99 100 100 97 92 100 100 100 90 81 5 5 5 5 5 5 2 23 5 100 100 34 90 100 100 52 87 5 5
100 100 100 100 100 100 100 100 99 100 99 98 88 100 100 91 65 100 35 5 5 5 5 63 100 98 96 5 100 18 100 100 100 71 38 6 72 5
100 100 100 100 100 100 100 100 100 100 98 72 99 92 100 40 80 24 5 5 36 34 100 100 6 100 77 100 88 100 98 100 92 10 5 5 5 6
100 100 100 100 100 100 100 100 100 93 90 84 58 74 91 100 98 98 65 100 59 100 100 100 100 89 100 100 100 100 97 91 99 99 14 5 36 12
100 100 100 100 100 100 100 100 100 100 100 100 100 96 89 100 100 91 46 35 100 100 100 99 100 59 97 79 33 100 100 100 100 61 77 5 6 19
100 100 100 100 100 100 100 100 100 100 96 100 100 100 100 100 100 92 11 100 100 100 100 100 99 81 15 5 61 100 100 100 100 88 100 33 5 56
100 100 100 100 100 100 100 100 100 100 100 100 100 100 100 100 100 100 100 100 100 100 100 100 73 40 84 26 38 100 100 100 80 97 100 94 37 74
100 100 100 100 100 100 100 100 100 100 100 100 100 100 100 100 100 100 100 100 100 100 100 100 97 73 100 100 100 94 100 100 100 100 100 79 98 70
100 100 100 100 100 100 100 100 100 100 100 100 100 100 100 100 100 100 100 100 100 100 100 89 92 70 100 100 89 100 100 100 100 100 100 100 98 100
100 100 100 100 100 100 100 100 100 100 100 100 100 100 100 100 100 100 100 100 100 100 100 14 96 72 77 86 24 76 99 100 100 100 100 100 100 100
100 100 100 100 100 100 100 100 100 100 100 100 100 100 100 100 100 100 100 100 100 83 63 73 56 100 100 100 46 100 100 100 100 100 100 98 100 100
100 100 100 100 100 100 100 100 100 100 100 100 100 100 100 100 100 100 100 100 100 92 100 100 100 100 100 100 93 99 97 100 100 100 100 69 100 91
100 100 100 100 100 100 100 100 100 96 100 100 100 100 100 100 100 100 100 100 100 100 100 100 100 100 100 100 95 100 100 100 100 100 77 93 70 97
100 100 100 100 100 100 100 100 100 100 100 100 100 100 100 100 100 100 100 100 100 100 100 100 100 100 100 100 100 100 100 100 100 100 98 97 91 93
100 100 100 100 100 100 100 100 100 100 100 100 100 100 100 100 100 100 100 100 100 100 100 100 100 100 100 100 100 100 100 100 100 99 70 85 44 5
100 100 100 100 100 100 100 100 100 100 100 100 100 100 100 100 100 100 100 100 100 100 100 100 100 100 100 100 100 100 100 100 100 100 100 99 87 39
100 100 100 100 100 100 100 100 100 100 100 100 100 100 100 100 100 100 100 100 100 100 100 100 100 100 100 100 100 100 98 82 71 92 97 98 79 29
100 100 100 100 100 100 100 100 100 100 100 100 100 100 100 100 100 100 100 100 100 100 100 100 100 100 100 100 100 100 95 95 38 18 6 38 99 85
100 100 100 100 100 100 100 100 100 100 100 100 100 100 100 100 100 100 100 100 100 100 100 100 100 100 100 100 94 98 86 75 44 55 74 78 89 97
100 100 100 100 100 100 100 100 100 100 100 100 100 100 100 100 100 100 100 100 100 100 100 100 100 100 100 100 100 100 100 100 99 100 100 74 91 84
100 100 100 100 100 100 100 100 100 100 100 100 100 100 100 100 100 100 100 100 100 100 100 100 100 100 100 100 100 100 100 100 100 100 84 99 94 82